Location: Dover
(48.8500°N, 53.9833°W)
Time: 06:46:34
(UTC+00:00)

IRS-P3 - Pass Details

Date: 14 November 2025
Orbit: 810 x 816 km, 99.0° (Epoch: 10 December)

Event Time Altitude Azimuth Distance (km) Brightness Sun altitude
Rises 21:21:13 0° 165° (SSE) 3,330 7.3 -13.9°
Reaches altitude 10° 21:23:33 10° 166° (SSE) 2,402 6.6 -14.3°
Maximum altitude 21:28:53 83° 254° (WSW) 829 4.2 -15.2°
Drops below altitude 10° 21:34:15 10° 343° (NNW) 2,417 6.7 -16.0°
Sets 21:36:36 0° 345° (NNW) 3,352 7.4 -16.4°
